Home > Weather > Offenburg > Past weeks

Flag for Germany Past Weather in Offenburg, Baden-Württemberg, Germany — Yesterday and Last 2 Weeks

Now
71 °F

Overcast.


Feels Like: 71 °F
Forecast: 63 / 79 °F
Wind: No wind

Location: Lahr

Current Time: Jul 23, 2016 at 11:19:00 PM

Latest Report: Jul 23, 2016 at 10:00 PM


Visibility: 16 mi

Pressure: 30.06 "Hg

Humidity: 80%

Dew Point: 64 °F

Location of OffenburgLocation

Past Weather in Offenburg — Graph

°F

Offenburg Temperature Yesterday

Maximum temperature yesterday: 81 °F (at 4:00 PM)
Minimum temperature yesterday: 63 °F (at 6:00 AM)
Average temperature yesterday: 70 °F

High & Low Weather Summary for the Past Weeks

 TemperatureHumidityPressure
High94 °F (Jul 20, 6:00 PM)97% (Jul 21, 7:00 AM)30.35 "Hg (Jul 21, 7:00 AM)
Low49 °F (Jul 16, 4:00 AM)26% (Jul 20, 6:00 PM)29.82 "Hg (Jul 10, 7:00 PM)
Average70 °F70%30.07 "Hg
* Reported Jul 8 10:00 PM — Jul 23 10:00 PM, Offenburg, Weather by CustomWeather, © 2016

Note: Actual official high and low records may vary slightly from our data, if they occured in-between our weather recording intervals... More about our weather records

Advertising

Offenburg Weather History for the Previous 24 Hours

Scroll right to see more
 ConditionsComfort  
Time TempWeatherWind HumidityBarometerVisibility
10:00 PM
Sat, Jul 23
71 °FOvercast.No wind80%30.06 "Hg16 mi
9:00 PM73 °FPartly sunny.1 mph70%30.04 "Hg34 mi
7:00 PM77 °FPartly sunny.2 mph61%30.02 "Hg34 mi
6:00 PM78 °FScattered clouds.1 mph54%30.02 "Hg31 mi
4:00 PM74 °FOvercast.2 mph69%30.04 "Hg22 mi
3:00 PM73 °FOvercast.6 mph75%30.05 "Hg19 mi
1:00 PM76 °FOvercast.2 mph60%30.03 "Hg22 mi
12:00 PM74 °FOvercast.2 mph65%30.05 "Hg17 mi
10:00 AM70 °FOvercast.3 mph76%30.04 "Hg10 mi
9:00 AM67 °FOvercast.2 mph84%30.04 "Hg7 mi
7:00 AM65 °FOvercast.2 mph95%30.03 "Hg16 mi
6:00 AM65 °FOvercast.2 mph96%30.03 "Hg16 mi
4:00 AM66 °FOvercast.1 mph93%30.02 "Hg19 mi
3:00 AM66 °FOvercast.2 mph92%30.02 "Hg19 mi
1:00 AM66 °FOvercast.1 mph95%30.03 "Hg14 mi
12:00 AM67 °FOvercast.2 mph91%30.03 "Hg22 mi
Weather by CustomWeather, © 2016

See weather overviewHow to use our weather pages